GW4768 Weather Reports


Display with metric or nautical units.
time (UTC)temp
F
wind
direction
speed
MPH
gust
MPH
rain 1hr
in
rain 24hr
in
rain mn
in
humidity
%
barometer
mb
20260505010022 62 350 13.0 18.0 0.00 0.00 0.00 41 1011.1
20260505003027 63 339 10.0 18.0 0.00 0.00 0.00 42 1011.1
20260505001514 62 337 12.0 21.0 0.00 0.00 0.00 41 1011.0
20260505000012 63 348 10.0 15.0 0.00 0.00 0.00 42 1010.9
20260504234527 63 13 12.0 18.0 0.00 0.00 0.00 40 1010.8
20260504233024 64 349 10.0 20.0 0.00 0.00 0.00 40 1010.7
20260504231525 65 21 10.0 17.0 0.00 0.00 0.00 41 1010.7
20260504230023 65 28 11.0 19.0 0.00 0.00 0.00 39 1010.6
20260504224521 66 22 13.0 18.0 0.00 0.00 0.00 38 1010.7
20260504223020 66 351 11.0 17.0 0.00 0.00 0.00 40 1010.7
20260504221526 66 9 10.0 17.0 0.00 0.00 0.00 37 1010.8
20260504220016 66 350 10.0 16.0 0.00 0.00 0.00 38 1010.9
20260504214526 65 345 10.0 17.0 0.00 0.00 0.00 40 1011.1
20260504213029 65 352 9.0 16.0 0.00 0.00 0.00 39 1011.3
20260504211534 65 340 8.0 20.0 0.00 0.00 0.00 38 1011.4
20260504210026 65 5 11.0 14.0 0.00 0.00 0.00 41 1011.6
20260504204524 64 350 8.0 14.0 0.00 0.00 0.00 44 1011.5
20260504203021 64 17 9.0 15.0 0.00 0.00 0.00 40 1011.7
20260504200021 63 59 6.0 10.0 0.00 0.00 0.00 41 1011.9
20260504193026 62 352 5.0 9.0 0.00 0.00 0.00 43 1012.3
20260504191528 61 9 3.0 10.0 0.00 0.00 0.00 45 1012.6
20260504190028 61 5 7.0 11.0 0.00 0.00 0.00 44 1012.7
20260504184541 60 34 7.0 10.0 0.00 0.00 0.00 46 1012.8
20260504181524 59 351 5.0 10.0 0.00 0.00 0.00 49 1013.1
20260504174520 57 26 9.0 12.0 0.00 0.00 0.00 53 1013.4
20260504173017 57 352 6.0 10.0 0.00 0.00 0.00 52 1013.6
20260504171513 57 13 6.0 11.0 0.00 0.00 0.00 50 1013.6
20260504081515 52 142 4.0 11.0 0.00 0.00 0.00 51 1012.4
20260504050014 55 130 10.0 14.0 0.00 0.00 0.00 47 1012.3
20260504044527 56 127 11.0 14.0 0.00 0.00 0.00 46 1012.3
20260504043029 58 113 7.0 12.0 0.00 0.00 0.00 44 1012.3
20260504041532 59 182 4.0 9.0 0.00 0.00 0.00 41 1012.1
20260504040022 61 146 5.0 7.0 0.00 0.00 0.00 39 1011.9
20260504034520 62 199 1.0 5.0 0.00 0.00 0.00 37 1011.8
20260504033016 63 263 3.0 4.0 0.00 0.00 0.00 35 1011.6
20260504031513 64 249 3.0 5.0 0.00 0.00 0.00 34 1011.5
20260504030009 65 251 1.0 2.0 0.00 0.00 0.00 34 1011.4
20260504024528 66 229 1.0 3.0 0.00 0.00 0.00 32 1011.2
20260504023027 67 283 2.0 3.0 0.00 0.00 0.00 31 1011.3
20260504021530 68 251 1.0 6.0 0.00 0.00 0.00 30 1011.1
20260504020022 69 315 3.0 7.0 0.00 0.00 0.00 29 1011.1
20260504014527 70 281 2.0 6.0 0.00 0.00 0.00 29 1011.2
20260504013019 72 280 3.0 6.0 0.00 0.00 0.00 27 1011.3